Dayton, OH

4:26 AM EST on February 22, 2017 (GMT -0500)
Oregon Historic District | | Change Station

Elev 0 ft 39.75 °N, 84.18 °W | Updated 14 seconds ago

Overcast
Overcast
56.3 °F
Feels Like 56.3 °F
N
0.2
Wind Variable Wind from SW
Gusts 2.5 mph

Today
High -- | Low -- °F
--% Chance of Precip.
Yesterday
High -- | Low -- °F
Precip. -- in
Pressure 29.92 in
Visibility 3.0 miles
Clouds Scattered Clouds 700 ft
Scattered Clouds 1300 ft
Overcast 3100 ft
Dew Point 56 °F
Humidity 99%
Rainfall 0.00 in
Snow Depth Not available.
7:19 AM 6:21 PM
Waning Crescent, 18% visible
SPECI KFFO 220906Z 13003KT 3SM R23R/5000FT BR SCT007 SCT013 OVC031 12/12 A2991 RMK AO2A SLP132
Pressure 29.92 in
Visibility 3.0 miles
Clouds Scattered Clouds 700 ft
Scattered Clouds 1300 ft
Overcast 3100 ft
Dew Point 56 °F
Humidity 99%
Rainfall 0.00 in
Snow Depth Not available.
7:19 AM 6:21 PM
Waning Crescent, 18% visible
SPECI KFFO 220906Z 13003KT 3SM R23R/5000FT BR SCT007 SCT013 OVC031 12/12 A2991 RMK AO2A SLP132

Get Your Daily Forecast Email!

Thanks for signing up!

Be on the lookout for a verification email in your inbox.

You'll start receiving the daily forecast at 8 AM.

×

10-Day Weather Forecast

Almanac

Astronomy

Feb. 22, 2017 Rise Set
Actual Time
Civil Twilight
Nautical Twilight
Astronomical Twilight
Moon
Length of Visible Light
Length of Day
Tomorrow will be .
, % of the Moon is Illuminated

Today's Extremes

State Highs State Lows

Community

WunderPhotos

Upload Photos

1,962,540 photos uploaded!

WunderBlog® & News

Nearby

Air Quality

  Air Quality AQ Index Pollutant
Not available.

Snow Depth

Station Depth Elevation

Earthquake Activity

City Distance Mag. Time & Date
Minimum magnitude displayed is 2.5.

Coastal Water Temperatures

Place Temperature

Stations

Nearby Weather Stations

Station Location Temp. Windchill Dew Point Humidity Wind Precip. Elev Updated Type
                   

Watches & Warnings

There are currently no watches in effect.